OE3AJC-13 Weather Reports


time (UTC)temp
F
wind
direction
speed
knots
gust
knots
rain 1hr
in
rain 24hr
in
rain mn
in
humidity
%
barometer
mb
20260502231708 40 224 0.0 0.9 0.00 0.00 0.00 75 1018.6
20260502225707 43 227 0.0 0.9 0.00 0.00 0.00 69 1018.6
20260502224706 43 219 0.0 0.9 0.00 0.00 0.00 69 1018.7
20260502223706 41 228 0.0 0.0 0.00 0.00 0.00 72 1018.7
20260502222705 41 229 0.0 0.9 0.00 0.00 0.00 71 1018.9
20260502221705 42 228 0.0 0.0 0.00 0.00 0.00 72 1018.8
20260502220704 43 232 0.0 0.0 0.00 0.00 0.00 70 1018.8
20260502215704 45 232 0.0 0.9 0.00 0.00 0.00 66 1018.9
20260502214703 45 223 0.0 0.0 0.00 0.00 0.00 66 1018.8
20260502213703 44 211 0.0 0.9 0.00 0.00 0.00 70 1018.8
20260502212702 46 231 0.0 0.0 0.00 0.00 0.00 67 1018.7
20260502211702 46 229 0.0 0.0 0.00 0.00 0.00 67 1018.8
20260502210701 46 228 0.0 0.0 0.00 0.00 0.00 67 1018.9
20260502205701 48 229 0.0 0.0 0.00 0.00 0.00 66 1018.9
20260502204700 48 225 0.0 0.0 0.00 0.00 0.00 61 1018.9
20260502203700 49 224 0.0 0.0 0.00 0.00 0.00 60 1019.0
20260502202659 49 225 0.0 0.0 0.00 0.00 0.00 61 1019.0
20260502201659 51 227 0.0 0.0 0.00 0.00 0.00 58 1019.1
20260502200658 51 228 0.0 0.0 0.00 0.00 0.00 55 1019.1
20260502195658 52 224 0.0 0.0 0.00 0.00 0.00 55 1019.1
20260502194657 53 223 0.0 0.0 0.00 0.00 0.00 53 1019.1
20260502193657 54 229 0.0 0.0 0.00 0.00 0.00 50 1019.3
20260502192656 55 229 0.0 0.0 0.00 0.00 0.00 49 1019.2
20260502191656 57 232 0.9 0.9 0.00 0.00 0.00 47 1019.1
20260502190655 56 224 0.0 0.0 0.00 0.00 0.00 48 1019.0
20260502185654 58 228 0.0 0.0 0.00 0.00 0.00 45 1019.0
20260502184654 60 217 0.0 0.9 0.00 0.00 0.00 41 1019.0
20260502183653 60 221 0.0 0.9 0.00 0.00 0.00 41 1019.1
20260502182653 62 178 0.9 1.7 0.00 0.00 0.00 39 1018.9
20260502181652 62 202 0.0 0.9 0.00 0.00 0.00 39 1018.9
20260502180652 64 207 0.0 0.9 0.00 0.00 0.00 38 1018.7
20260502163647 73 214 0.9 1.7 0.00 0.00 0.00 26 1019.2
20260502161646 73 292 1.7 2.6 0.00 0.00 0.00 24 1019.3
20260502160646 74 177 3.5 3.5 0.00 0.00 0.00 24 1019.5
20260502151643 75 204 1.7 3.5 0.00 0.00 0.00 24 1019.7
20260502150643 75 178 2.6 3.5 0.00 0.00 0.00 24 1020.1
20260502130637 74 131 0.9 2.6 0.00 0.00 0.00 24 1021.1
20260502123635 74 216 1.7 2.6 0.00 0.00 0.00 26 1021.7
20260502122635 73 232 0.9 1.7 0.00 0.00 0.00 28 1021.7
20260502121634 72 244 0.9 1.7 0.00 0.00 0.00 27 1021.7
20260502120634 73 237 1.7 2.6 0.00 0.00 0.00 24 1021.7
20260502115633 73 151 3.5 5.2 0.00 0.00 0.00 25 1021.9
20260502113632 74 246 1.7 2.6 0.00 0.00 0.00 28 1022.2
20260502112632 72 213 1.7 2.6 0.00 0.00 0.00 27 1022.3
20260502111631 71 217 1.7 1.7 0.00 0.00 0.00 26 1022.6
20260502110631 73 230 0.9 1.7 0.00 0.00 0.00 26 1022.6
20260502105630 71 249 0.9 1.7 0.00 0.00 0.00 32 1022.8
20260502104630 71 143 0.9 3.5 0.00 0.00 0.00 30 1022.8
20260502103629 70 245 0.9 1.7 0.00 0.00 0.00 28 1022.8
20260502102629 71 197 0.9 1.7 0.00 0.00 0.00 28 1022.9
20260502100628 70 205 2.6 3.5 0.00 0.00 0.00 29 1023.3
20260502090625 68 230 1.7 2.6 0.00 0.00 0.00 34 1023.9
20260502070618 58 219 0.0 0.0 0.00 0.00 0.00 52 1024.6
20260502065618 57 218 0.9 0.9 0.00 0.00 0.00 52 1024.7
20260502064617 54 237 0.0 0.9 0.00 0.00 0.00 58 1024.8
20260502063617 54 210 0.0 0.9 0.00 0.00 0.00 58 1024.6
20260502062616 51 226 0.0 0.0 0.00 0.00 0.00 61 1024.6
20260502061616 50 205 0.9 1.7 0.00 0.00 0.00 62 1024.8
20260502060615 51 227 0.0 0.0 0.00 0.00 0.00 62 1024.7
20260502055615 48 219 0.0 0.0 0.00 0.00 0.00 66 1024.8
20260502054614 47 222 0.0 0.0 0.00 0.00 0.00 67 1024.8
20260502053614 45 218 0.0 0.0 0.00 0.00 0.00 69 1024.7
20260502052613 43 223 0.0 0.0 0.00 0.00 0.00 74 1024.6
20260502051613 42 218 0.0 0.9 0.00 0.00 0.00 77 1024.7
20260502050612 41 230 0.0 0.0 0.00 0.00 0.00 82 1024.8
20260502045612 37 231 0.0 0.0 0.00 0.00 0.00 83 1024.9
20260502044611 35 223 0.0 0.9 0.00 0.00 0.00 84 1024.6
20260502043611 34 222 0.0 0.0 0.00 0.00 0.00 84 1024.5
20260502042611 34 222 0.0 0.0 0.00 0.00 0.00 83 1024.7
20260502041610 33 222 0.0 0.0 0.00 0.00 0.00 83 1024.6
20260502040609 33 222 0.0 0.0 0.00 0.00 0.00 83 1024.6
20260502035609 33 223 0.0 0.0 0.00 0.00 0.00 83 1024.7
20260502034608 33 223 0.0 0.0 0.00 0.00 0.00 83 1024.6
20260502033608 34 223 0.0 0.0 0.00 0.00 0.00 83 1024.6
20260502032607 34 223 0.0 0.0 0.00 0.00 0.00 82 1024.5
20260502031607 34 223 0.0 0.0 0.00 0.00 0.00 82 1024.7
20260502030606 34 223 0.0 0.0 0.00 0.00 0.00 82 1024.2
20260502025606 34 223 0.0 0.0 0.00 0.00 0.00 82 1024.4
20260502024606 35 223 0.0 0.0 0.00 0.00 0.00 82 1024.7
20260502023605 35 222 0.0 0.0 0.00 0.00 0.00 81 1024.7
20260502022604 35 222 0.0 0.0 0.00 0.00 0.00 81 1024.8
20260502021604 35 221 0.0 0.9 0.00 0.00 0.00 81 1024.8
20260502020603 35 224 0.0 0.0 0.00 0.00 0.00 81 1024.9
20260502015603 36 224 0.0 0.0 0.00 0.00 0.00 81 1024.8
20260502014602 35 225 0.0 0.0 0.00 0.00 0.00 81 1024.8
20260502013602 35 225 0.0 0.0 0.00 0.00 0.00 80 1024.8
20260502012601 35 225 0.0 0.0 0.00 0.00 0.00 80 1024.7
20260502011601 36 225 0.0 0.0 0.00 0.00 0.00 80 1024.8
20260502010600 36 225 0.0 0.0 0.00 0.00 0.00 79 1025.2
20260502005600 37 225 0.0 0.0 0.00 0.00 0.00 80 1025.0
20260502004559 37 225 0.0 0.0 0.00 0.00 0.00 79 1025.1
20260502003559 37 224 0.0 0.0 0.00 0.00 0.00 79 1025.0
20260502002558 37 225 0.0 0.0 0.00 0.00 0.00 78 1025.2
20260502001558 37 225 0.0 0.0 0.00 0.00 0.00 78 1025.3
20260502000557 38 226 0.0 0.0 0.00 0.00 0.00 78 1025.3
20260501235557 38 223 0.0 0.0 0.00 0.00 0.00 78 1025.2
20260501234556 39 222 0.0 0.9 0.00 0.00 0.00 77 1025.1
20260501233556 38 227 0.0 0.0 0.00 0.00 0.00 77 1025.4
20260501232555 39 230 0.0 0.0 0.00 0.00 0.00 76 1025.3